Weather History for KINK - October, 2013

Change the Weather History Date:

Thursday, October 3, 2013

  Actual Average Record
Temperature  
Mean Temperature 79 °F -  
Max Temperature 96 °F 85 °F - (-1)
Min Temperature 63 °F 55 °F - (-1)
Cooling Degree Days 14    
Growing Degree Days 29 (Base 50)    
Moisture  
Dew Point 56 °F    
Average Humidity 53    
Maximum Humidity 93    
Minimum Humidity 17    
Precipitation  
Precipitation 0.00 in - - ()
Sea Level Pressure  
Sea Level Pressure 29.71 in    
Wind  
Wind Speed 7 mph (SSE)    
Max Wind Speed 13 mph    
Max Gust Speed -    
Visibility 10 miles    
Events      
Averages and records for this station are not official NWS values.
T = Trace of Precipitation, MM = Missing Value Source: NWS Daily Summary

Daily Weather History Graph

Daily Weather History Graph

Search for Another Location

Airport or City:

Trip Planner

Search our weather history database for the weather conditions in past years. The results will help you decide how hot, cold, wet, or windy it might be!

Date:

Astronomy

Oct. 03, 2013 Rise Set
Actual Time 7:48 AM CDT 7:34 PM CDT
Civil Twilight 7:23 AM CDT 7:59 PM CDT
Nautical Twilight 6:55 AM CDT 8:27 PM CDT
Astronomical Twilight 6:27 AM CDT 8:55 PM CDT
Moon 6:27 AM CDT (10/3) 6:43 PM CDT (10/3)
Length of Visible Light 12h 35m
Length of Day
11h 46m
Waning Crescent, 2% of the Moon is Illuminated
Oct 3
Waning Crescent
Oct 4
New
Oct 11
First Quarter
Oct 18
Full
Oct 26
Last Quarter

Hourly Weather History & Observations

Time (CDT) Temp. Heat Index Dew Point Humidity Pressure Visibility Wind Dir Wind Speed Gust Speed Precip Events Conditions
12:53 AM 72.0 °F - 60.1 °F 66% 29.75 in 10.0 mi SE 9.2 mph - N/A   Clear
1:53 AM 71.1 °F - 62.1 °F 73% 29.74 in 10.0 mi SSE 8.1 mph - N/A   Clear
2:53 AM 71.1 °F - 62.1 °F 73% 29.74 in 10.0 mi SSE 8.1 mph - N/A   Clear
3:53 AM 69.1 °F - 62.1 °F 78% 29.73 in 10.0 mi SSE 8.1 mph - N/A   Clear
4:53 AM 66.9 °F - 62.1 °F 84% 29.72 in 10.0 mi East 4.6 mph - N/A   Clear
5:53 AM 66.0 °F - 62.1 °F 87% 29.73 in 10.0 mi Calm Calm - N/A   Clear
6:53 AM 64.0 °F - 61.0 °F 90% 29.74 in 10.0 mi East 4.6 mph - N/A   Clear
7:53 AM 63.0 °F - 61.0 °F 93% 29.76 in 10.0 mi ESE 4.6 mph - N/A   Clear
8:53 AM 66.9 °F - 63.0 °F 87% 29.78 in 10.0 mi ESE 4.6 mph - N/A   Clear
9:53 AM 72.0 °F - 62.1 °F 71% 29.78 in 10.0 mi South 5.8 mph - N/A   Unknown
10:53 AM 78.1 °F - 59.0 °F 52% 29.77 in 10.0 mi Calm Calm - N/A   Clear
11:53 AM 84.0 °F - 50.0 °F 31% 29.76 in 10.0 mi Calm Calm - N/A   Clear
12:53 PM 89.1 °F - 46.9 °F 23% 29.74 in 10.0 mi Variable 3.5 mph - N/A   Clear
1:53 PM 91.0 °F - 45.0 °F 20% 29.71 in 10.0 mi South 8.1 mph - N/A   Clear
2:53 PM 91.9 °F - 45.0 °F 20% 29.67 in 10.0 mi South 10.4 mph - N/A   Clear
3:53 PM 93.9 °F - 44.1 °F 18% 29.65 in 10.0 mi South 9.2 mph - N/A   Clear
4:53 PM 95.0 °F - 43.0 °F 17% 29.63 in 10.0 mi SSW 12.7 mph - N/A   Partly Cloudy
5:53 PM 93.9 °F - 44.1 °F 18% 29.62 in 10.0 mi SSW 8.1 mph - N/A   Clear
6:53 PM 90.0 °F 88.6 °F 57.0 °F 33% 29.63 in 10.0 mi SSE 12.7 mph - N/A   Clear
7:53 PM 87.1 °F 85.9 °F 57.0 °F 36% 29.64 in 10.0 mi SE 11.5 mph - N/A   Clear
8:53 PM 84.0 °F 83.5 °F 57.9 °F 41% 29.66 in 10.0 mi SE 6.9 mph - N/A   Scattered Clouds
9:53 PM 82.0 °F 82.1 °F 59.0 °F 45% 29.68 in 10.0 mi South 4.6 mph - N/A   Partly Cloudy
11:53 PM 75.9 °F - 61.0 °F 60% 29.68 in 10.0 mi SSE 6.9 mph - N/A   Clear